YO4ISC-13 Weather Reports


time (UTC)temp
F
wind
direction
speed
knots
gust
knots
rain 1hr
in
rain 24hr
in
rain mn
in
humidity
%
barometer
mb
20260505184002 51 132 1.7 1.7 0.00 0.00 0.00 85 1018.0
20260505183002 51 156 0.0 0.0 0.00 0.00 0.00 86 1018.0
20260505182001 51 145 0.9 1.7 0.00 0.00 0.00 86 1018.0
20260505181002 52 151 0.0 0.0 0.00 0.00 0.00 85 1018.0
20260505180001 52 155 1.7 1.7 0.00 0.00 0.00 84 1018.0
20260505175002 53 165 0.0 1.7 0.00 0.00 0.00 83 1018.0
20260505174001 53 151 0.9 1.7 0.00 0.00 0.00 82 1017.0
20260505173001 53 180 1.7 1.7 0.00 0.00 0.00 81 1017.0
20260505172002 54 150 1.7 1.7 0.00 0.00 0.00 80 1017.0
20260505171001 54 165 2.6 2.6 0.00 0.00 0.00 79 1017.0
20260505170002 55 176 3.5 3.5 0.00 0.00 0.00 78 1017.0
20260505165001 55 153 3.5 3.5 0.00 0.00 0.00 77 1017.0
20260505164002 55 148 2.6 3.5 0.00 0.00 0.00 77 1017.0
20260505163001 56 156 3.5 4.3 0.00 0.00 0.00 74 1017.0
20260505162002 56 153 4.3 4.3 0.00 0.00 0.00 72 1017.0
20260505161002 57 162 4.3 5.2 0.00 0.00 0.00 70 1017.0
20260505153002 57 164 6.1 6.1 0.00 0.00 0.00 69 1017.0
20260505152001 57 165 6.1 7.8 0.00 0.00 0.00 69 1017.0
20260505151001 58 138 4.3 6.1 0.00 0.00 0.00 68 1017.0
20260505125002 59 160 6.1 7.8 0.00 0.00 0.00 58 1018.0
20260505124002 59 164 6.1 6.1 0.00 0.00 0.00 64 1018.0
20260505123001 59 158 6.1 7.0 0.00 0.00 0.00 63 1018.0
20260505122002 59 155 5.2 7.8 0.00 0.00 0.00 63 1018.0
20260505121001 59 159 7.8 7.8 0.00 0.00 0.00 63 1018.0
20260505120002 59 171 6.1 9.6 0.00 0.00 0.00 68 1018.0
20260505115001 60 165 4.3 7.0 0.00 0.00 0.00 66 1018.0
20260505114002 60 150 7.0 7.0 0.00 0.00 0.00 64 1018.0
20260505113002 59 168 6.1 8.7 0.00 0.00 0.00 67 1018.0
20260505112001 59 170 7.8 8.7 0.00 0.00 0.00 68 1018.0
20260505111002 60 169 6.1 7.8 0.00 0.00 0.00 66 1018.0
20260505102002 61 127 4.3 5.2 0.00 0.00 0.00 57 1018.0
20260505101001 61 158 7.0 7.8 0.00 0.00 0.00 57 1018.0
20260505100002 61 126 9.6 9.6 0.00 0.00 0.00 55 1018.0
20260505095001 62 109 10.4 11.3 0.00 0.00 0.00 51 1018.0
20260505094002 62 107 5.2 8.7 0.00 0.00 0.00 50 1018.0
20260505093001 62 105 7.8 9.6 0.00 0.00 0.00 47 1018.0
20260505092002 62 102 6.1 7.8 0.00 0.00 0.00 49 1018.0
20260505091002 62 112 7.8 8.7 0.00 0.00 0.00 47 1018.0
20260505090001 62 116 4.3 7.0 0.00 0.00 0.00 51 1018.0
20260505085002 62 102 8.7 9.6 0.00 0.00 0.00 49 1018.0
20260505084001 63 112 5.2 8.7 0.00 0.00 0.00 46 1018.0
20260505083002 64 88 4.3 6.1 0.00 0.00 0.00 40 1018.0
20260505082001 63 82 4.3 4.3 0.00 0.00 0.00 40 1018.0
20260505081001 63 87 4.3 5.2 0.00 0.00 0.00 41 1018.0
20260505080002 63 118 5.2 6.1 0.00 0.00 0.00 42 1018.0
20260505075002 63 127 4.3 7.0 0.00 0.00 0.00 42 1018.0
20260505074001 63 103 5.2 6.1 0.00 0.00 0.00 44 1018.0
20260505073002 63 77 3.5 4.3 0.00 0.00 0.00 44 1018.0
20260505072002 63 67 2.6 5.2 0.00 0.00 0.00 45 1018.0
20260505071001 62 60 5.2 7.0 0.00 0.00 0.00 43 1018.0
20260505070002 62 78 3.5 4.3 0.00 0.00 0.00 46 1018.0
20260505065002 61 69 5.2 6.1 0.00 0.00 0.00 47 1018.0
20260505064001 60 72 2.6 4.3 0.00 0.00 0.00 51 1018.0
20260505063002 60 36 6.1 7.8 0.00 0.00 0.00 51 1018.0
20260505062002 59 56 5.2 6.1 0.00 0.00 0.00 54 1018.0
20260505061001 58 59 4.3 5.2 0.00 0.00 0.00 58 1018.0
20260505060003 58 53 4.3 6.1 0.00 0.00 0.00 56 1018.0
20260505055002 57 61 6.1 7.8 0.00 0.00 0.00 59 1018.0
20260505054002 57 22 4.3 5.2 0.00 0.00 0.00 59 1018.0
20260505053001 56 42 3.5 3.5 0.00 0.00 0.00 62 1018.0
20260505052002 55 22 3.5 6.1 0.00 0.00 0.00 62 1018.0
20260505051001 53 13 3.5 5.2 0.00 0.00 0.00 63 1018.0
20260505041002 45 7 1.7 2.6 0.00 0.00 0.00 72 1017.0
20260505040002 44 5 3.5 6.1 0.00 0.00 0.00 74 1017.0
20260505035002 42 21 2.6 2.6 0.00 0.00 0.00 75 1017.0
20260505034001 41 354 1.7 3.5 0.00 0.00 0.00 77 1017.0
20260505033002 40 4 6.1 6.1 0.00 0.00 0.00 78 1017.0
20260505032001 40 0 6.1 6.1 0.00 0.00 0.00 79 1017.0
20260505031002 40 356 4.3 6.1 0.00 0.00 0.00 79 1017.0
20260505030001 40 2 4.3 5.2 0.00 0.00 0.00 79 1017.0
20260505025002 40 2 4.3 5.2 0.00 0.00 0.00 78 1017.0
20260505024001 41 6 5.2 6.1 0.00 0.00 0.00 77 1017.0
20260505023002 41 356 2.6 6.1 0.00 0.00 0.00 76 1017.0
20260505022001 41 357 5.2 6.1 0.00 0.00 0.00 75 1016.0
20260505021002 41 352 3.5 4.3 0.00 0.00 0.00 75 1017.0
20260505020001 41 0 4.3 5.2 0.00 0.00 0.00 75 1016.0
20260505015002 41 358 2.6 3.5 0.00 0.00 0.00 76 1016.0
20260505014002 41 0 3.5 4.3 0.00 0.00 0.00 76 1017.0
20260505013001 41 1 2.6 3.5 0.00 0.00 0.00 76 1016.0
20260505012002 41 0 3.5 4.3 0.00 0.00 0.00 77 1017.0
20260505011001 41 0 2.6 3.5 0.00 0.00 0.00 77 1017.0
20260505010002 40 12 1.7 2.6 0.00 0.00 0.00 78 1017.0
20260505005001 40 359 3.5 3.5 0.00 0.00 0.00 78 1017.0
20260505004002 40 6 2.6 3.5 0.00 0.00 0.00 79 1017.0
20260505003002 41 3 1.7 3.5 0.00 0.00 0.00 79 1017.0
20260505002002 40 15 1.7 1.7 0.00 0.00 0.00 80 1017.0
20260505001002 41 10 0.9 0.9 0.00 0.00 0.00 79 1017.0
20260505000001 41 38 0.9 1.7 0.00 0.00 0.00 78 1017.0
20260504235002 41 108 3.5 4.3 0.00 0.00 0.00 79 1017.0
20260504234001 42 358 0.9 1.7 0.00 0.00 0.00 76 1017.0
20260504233001 42 344 1.7 2.6 0.00 0.00 0.00 76 1017.0
20260504232002 43 0 0.9 2.6 0.00 0.00 0.00 74 1017.0
20260504231001 44 359 1.7 1.7 0.00 0.00 0.00 74 1017.0
20260504230002 44 358 0.9 1.7 0.00 0.00 0.00 73 1017.0
20260504225001 44 355 1.7 2.6 0.00 0.00 0.00 72 1017.0
20260504224002 45 0 2.6 3.5 0.00 0.00 0.00 71 1017.0
20260504223001 46 358 4.3 4.3 0.00 0.00 0.00 68 1017.0
20260504222002 46 8 2.6 3.5 0.00 0.00 0.00 67 1017.0
20260504221001 46 353 4.3 4.3 0.00 0.00 0.00 67 1017.0
20260504220002 46 356 7.0 7.0 0.00 0.00 0.00 67 1017.0
20260504215001 46 14 4.3 6.1 0.00 0.00 0.00 68 1017.0
20260504214002 46 4 3.5 4.3 0.00 0.00 0.00 68 1017.0
20260504213001 46 7 4.3 4.3 0.00 0.00 0.00 69 1017.0
20260504212002 46 12 2.6 4.3 0.00 0.00 0.00 69 1017.0
20260504211001 46 12 6.1 6.1 0.00 0.00 0.00 69 1017.0
20260504210002 46 3 5.2 5.2 0.00 0.00 0.00 68 1017.0
20260504205001 46 1 3.5 5.2 0.00 0.00 0.00 68 1017.0
20260504204002 47 0 4.3 5.2 0.00 0.00 0.00 65 1017.0
20260504203001 47 357 3.5 3.5 0.00 0.00 0.00 65 1017.0
20260504202002 47 350 3.5 5.2 0.00 0.00 0.00 66 1017.0
20260504201002 47 5 3.5 5.2 0.00 0.00 0.00 67 1017.0
20260504200001 46 2 5.2 5.2 0.00 0.00 0.00 69 1017.0
20260504195002 46 5 3.5 5.2 0.00 0.00 0.00 69 1017.0
20260504194001 46 3 3.5 5.2 0.00 0.00 0.00 69 1017.0
20260504193002 47 2 1.7 3.5 0.00 0.00 0.00 68 1017.0
20260504192001 47 2 3.5 3.5 0.00 0.00 0.00 66 1017.0
20260504191002 48 359 5.2 5.2 0.00 0.00 0.00 67 1017.0
20260504190002 48 9 1.7 3.5 0.00 0.00 0.00 66 1017.0
20260504185002 49 11 2.6 3.5 0.00 0.00 0.00 65 1017.0